星链-35823(STARLINK-35823)

导读 | 豆包AI

STARLINK-35824是美国于2025年11月6日发射的星链系列卫星,隶属于SpaceX打造的星链卫星互联网星座,主要为全球偏远地区、海洋与空中用户提供高速低延迟的宽带互联网服务,进一步完善了星链星座的全球覆盖能力,也扩充了美国在轨低轨卫星星座的规模。

基本信息
目录编号:
66370
目录名称:
STARLINK-35824
国际标识:
2025-254Y
轨道中心:
EARTH
卫星名称:
星链-35823
卫星全名:
星链-35823(STARLINK-35823)
卫星状态:
在轨 (已飞行128 天)
发射日期:
2025-11-06 UTC
国别 :
美国 (US)
星等 :
--
轨道信息
数据来源 国际轨道数据 AOE轨道数据
星历时间 2026-03-14T02:47:20+0800
12小时前
查看轨道信息
2026-03-10T11:00:00+0800
4天前
查看轨道信息
半长轴 6853.317km 6853.198km
偏心率 0.0001253 0.0001054
轨道倾角 53.159° 53.157°
近地点辐角 87.236° 54.919°
升交点赤经 211.175° 228.169°
平近点角 272.878° 303.937°
近地点 474.321km 474.338km
远地点 476.039km 475.784km
周期 94.105分钟 94.102分钟
每日圈数 15.302118 15.302517
详细信息
固有亮度:
5
最大亮度:
2.5
卫星平台:
Starlink V1.0
覆盖范围:
全球
运营商:
太空探索技术公司
运营商所在国:
美国
制造商(研发单位):
太空探索技术公司
制造商所在国:
美国
使用方式:
暂无
卫星简介
Starlink 计划是 SpaceX 推出的全球卫星互联网项目,通过发射低轨道卫星,为全球尤其是偏远地区提供高速、低延迟的互联网服务。自 2019 年起,Starlink 已部署数千颗卫星,旨在缩小全球数字鸿沟,推动互联网普及。该项目还为军事、航空等行业提供通信支持,带来广泛经济效益。
2D轨道图
3D轨道图
轨道高度分析图
轨道倾角分析图
轨道综合分析图
查看轨道综合分析图